Temperature
22 22 22 21 21 21 20 20 20 19 19 19 19 18 18 18 18 18 18 18 18 18 18 18 18 18 18 17 17 17 18 18 17 17 17 17 17 17 17 17 17 17 17
22 22 22 21 21 21 20 20 20 20 19 19 19 19 18 18 18 18 18 18 18 18 18 18 17 17 17 17 17 17 17 17 17 17 17 17 17 17 17 17 17 17 17
23 22 22 22 21 21 21 20 20 20 19 19 19 18 18 18 18 18 18 18 18 18 17 17 17 17 17 17 17 17 17 17 17 17 17 17 17 17 16 16 16 16 16
23 23 22 22 22 21 21 20 20 20 19 19 19 19 18 18 18 18 18 18 18 18 17 17 17 17 17 17 17 17 17 17 17 17 17 17 16 16 16 16 16 16 16
23 23 23 23 22 22 21 21 20 20 20 19 19 19 19 18 18 18 18 18 18 18 18 17 17 17 17 17 17 17 17 17 17 17 17 17 16 16 16 15 15 15 15
24 23 23 23 22 22 21 21 20 20 20 19 19 19 19 18 18 18 18 18 18 18 18 17 17 17 17 17 17 17 17 17 17 17 17 16 16 16 16 15 15 15 15
24 23 23 23 22 22 21 21 21 20 20 19 19 19 19 18 18 18 18 18 18 18 18 17 17 17 17 17 17 17 17 17 17 17 16 16 16 16 16 15 15 15 14
24 24 24 23 23 22 22 21 21 20 20 20 19 19 19 18 18 18 18 18 18 18 17 17 17 17 17 17 17 17 17 17 17 16 16 16 16 16 15 15 15 14 14
25 24 24 24 23 23 22 22 21 21 20 20 20 19 19 19 18 18 18 18 17 17 17 17 17 17 17 17 17 17 16 16 16 16 16 16 16 16 15 15 15 15 14
25 25 24 24 23 23 22 22 21 21 21 20 20 19 19 19 18 18 18 18 17 17 17 17 17 16 16 16 16 16 16 16 16 16 16 15 15 15 15 15 15 15 14
25 25 25 24 24 23 22 22 21 21 21 20 20 19 19 19 18 18 18 17 17 17 17 17 16 16 16 16 16 16 16 16 16 15 15 15 15 15 15 15 14 14 14
25 25 24 24 23 23 22 22 22 21 21 20 20 19 19 19 18 18 18 17 17 17 17 16 16 16 16 16 16 16 16 15 15 15 15 15 15 15 14 14 14 14 14
24 24 24 24 23 23 22 22 22 21 21 20 20 19 19 19 18 18 17 17 17 17 16 16 16 16 16 15 15 15 15 15 15 15 15 14 14 14 14 14 14 14 13
24 24 24 24 23 23 22 22 22 21 21 20 20 19 19 19 18 18 17 17 16 16 16 16 16 16 15 15 15 15 15 15 15 14 14 14 14 14 14 14 14 13 13
23 24 24 23 23 23 22 22 22 21 21 20 20 19 19 18 18 18 17 17 16 16 16 16 15 15 15 15 15 15 15 15 14 14 14 14 14 13 13 13 13 13 13
24 24 24 23 23 23 22 22 22 21 21 20 20 19 19 18 18 17 17 16 16 16 16 15 15 15 15 15 14 14 14 14 14 14 14 13 13 13 13 13 13 13 13
24 24 24 24 24 23 23 22 22 21 21 20 20 19 19 18 18 17 17 16 16 16 15 15 15 15 14 14 14 14 14 14 14 13 13 13 13 13 13 12 12 12 12
24 24 24 24 24 23 23 22 22 21 21 20 20 19 18 18 17 17 17 16 16 15 15 15 15 14 14 14 14 14 13 13 13 13 13 13 12 12 12 12 12 12 11
24 24 24 24 23 23 22 22 21 21 20 20 19 19 18 18 17 17 17 16 16 15 15 15 14 14 14 14 13 13 13 13 13 13 12 12 12 12 12 12 12 11 11
24 24 23 23 23 22 22 21 21 20 20 20 19 19 18 18 17 17 16 16 15 15 15 14 14 14 14 13 13 13 13 13 12 12 12 12 12 12 11 11 11 11 11
23 23 23 22 22 22 21 21 21 20 20 19 19 18 18 17 16 16 16 15 15 15 14 14 14 13 13 13 13 13 12 12 12 12 12 12 11 11 11 11 11 11 11
23 23 22 22 21 21 21 21 21 20 20 19 18 18 17 17 16 16 15 15 15 14 14 14 14 13 13 13 12 12 12 12 12 12 11 11 11 11 11 11 11 10 10
22 22 22 22 21 21 21 21 20 20 19 19 18 18 17 16 16 16 15 15 15 14 14 14 14 13 13 13 12 12 12 12 11 11 11 11 11 11 11 10 10 10 10
21 21 21 21 21 20 20 20 20 19 19 18 18 17 17 16 16 15 15 15 15 14 14 14 13 13 13 13 12 12 12 11 11 11 11 11 10 10 10 10 10 10 10
20 20 20 21 20 20 19 19 19 19 18 18 17 17 16 16 16 16 15 15 15 14 14 14 13 13 13 13 12 12 12 11 11 11 11 10 10 10 10 10 10 10 10
19 19 19 20 20 19 19 18 18 18 18 17 17 17 16 16 16 15 15 15 14 14 13 13 13 13 13 12 12 12 11 11 11 11 11 10 10 10 10 10 10 10 9
Wind_Speed
7 5 6 6 6 5 5 5 5 4 4 2 2 2 1 0 0 1 2 3 3 4 3 2 1 1 1 2 2 1 1 1 1 1 1 1 0 0 1 1 1 2 3
6 6 6 6 7 7 6 5 5 5 4 3 2 2 2 1 1 0 1 2 2 2 3 2 1 1 1 1 1 1 1 1 2 2 1 1 1 1 0 0 1 1 1
11 9 8 8 7 8 8 7 6 5 4 4 3 2 2 1 1 1 1 1 1 1 1 1 1 1 2 2 2 2 3 2 1 1 3 2 2 1 1 1 1 2 2
10 9 9 9 9 9 7 6 6 5 4 5 4 4 3 2 2 1 0 1 1 0 1 1 1 1 1 2 2 2 2 3 2 2 1 2 3 2 0 1 2 3 3
12 12 11 11 9 8 7 6 5 4 4 4 5 4 3 2 1 1 0 1 1 1 0 1 1 1 1 1 1 1 2 2 3 2 2 2 1 1 2 1 1 2 3
11 11 9 8 7 6 6 5 5 4 4 5 4 5 5 4 3 1 1 0 1 1 1 0 0 0 0 1 1 1 2 2 2 2 2 2 2 2 2 2 1 1 2
10 10 10 9 9 8 7 6 6 5 5 5 5 5 5 4 4 3 2 1 0 1 1 1 0 0 0 1 1 1 1 1 1 2 2 2 2 2 3 3 2 1 1
11 11 12 11 10 10 9 8 7 6 5 5 4 4 4 3 2 2 2 2 1 1 0 1 1 1 2 2 2 1 1 1 1 1 1 2 2 2 3 4 4 2 1
12 12 12 12 11 11 10 9 9 7 6 5 4 4 4 4 3 3 2 1 1 1 2 2 2 2 3 3 2 2 2 2 1 0 1 1 1 1 2 3 4 4 3
10 10 11 12 11 10 9 8 8 8 6 6 5 4 4 3 3 3 2 2 2 2 3 3 3 3 3 3 3 3 2 3 2 1 2 1 1 1 2 2 2 3 3
11 11 10 10 10 9 8 8 8 7 6 6 5 5 4 3 3 3 2 2 3 3 3 3 3 3 4 3 4 4 3 4 3 3 3 2 2 2 2 2 2 3 4
9 9 9 10 10 10 9 9 8 8 7 7 6 5 4 4 4 3 3 3 4 3 3 4 4 4 4 4 4 4 4 4 4 4 4 3 3 4 3 3 3 3 4
7 7 8 9 10 10 10 10 9 9 8 7 7 6 5 5 4 3 3 4 4 4 4 4 5 4 4 4 4 4 5 5 4 4 4 3 4 4 3 4 4 4 5
7 8 8 8 9 9 9 9 9 9 9 8 8 7 6 5 5 5 4 4 5 5 5 5 5 4 4 4 4 5 5 5 5 4 4 4 4 3 4 4 5 6 6
8 9 9 9 9 9 9 9 9 9 9 9 8 7 6 5 5 5 5 5 5 5 5 5 5 4 4 3 4 4 5 5 5 5 5 4 5 5 4 4 5 7 6
9 9 9 10 10 11 10 10 10 10 10 10 9 7 6 6 5 5 5 6 5 5 5 5 5 4 3 5 5 5 4 4 4 4 4 4 5 6 8 8 8 8 7
10 10 10 11 11 11 11 12 11 10 10 10 9 8 8 7 6 6 6 5 5 5 5 4 4 4 4 5 6 7 5 4 4 3 3 4 4 5 5 8 9 8 7
8 9 9 9 9 9 9 9 9 10 10 10 9 8 8 7 7 6 6 5 4 5 4 4 3 3 3 6 7 8 6 6 5 4 4 4 4 4 5 6 6 6 5
7 7 8 9 9 10 10 11 10 10 10 10 10 9 9 9 8 7 6 5 5 4 3 3 3 3 3 5 7 7 5 5 5 5 4 4 4 5 7 7 7 6 4
4 5 6 7 10 10 11 11 11 11 11 10 10 10 10 9 9 8 6 4 4 4 4 3 2 3 2 3 6 6 4 4 3 3 4 5 5 5 6 6 6 5 3
4 6 8 8 8 10 11 12 11 11 10 10 10 9 9 9 8 7 6 6 5 5 4 3 2 2 2 2 4 5 4 4 3 2 2 2 5 6 6 5 4 4 4
4 7 7 7 7 9 10 10 11 10 10 10 10 10 9 9 8 8 7 7 7 6 4 3 2 1 1 2 3 5 4 5 4 2 1 1 4 5 5 4 5 6 5
4 6 7 7 6 8 9 10 9 10 11 11 10 9 9 8 8 9 8 7 6 5 4 4 3 2 1 1 2 4 5 5 3 2 2 3 4 5 4 4 5 5 3
4 5 7 7 6 6 7 8 9 11 11 11 10 9 10 9 8 7 7 7 7 6 5 5 4 3 2 2 2 2 3 3 3 2 3 4 5 4 4 3 3 2 2
2 4 6 7 6 6 6 6 9 11 11 11 10 9 8 8 7 6 6 7 6 7 7 6 5 5 5 5 6 6 4 4 3 3 3 2 2 2 2 2 2 2 2
3 3 4 5 5 6 6 6 8 10 11 9 9 8 7 7 7 6 4 2 3 6 8 7 7 5 5 6 8 8 6 6 7 5 2 2 2 2 2 2 2 1 2
Wind_Direction
210 187 179 169 160 165 176 181 171 167 148 136 143 147 181 217 233 240 237 227 220 205 190 201 196 182 196 217 197 173 163 175 134 97 35 15 33 172 236 229 217 227 232
198 188 178 172 174 180 190 192 190 181 173 160 157 157 153 172 192 234 263 232 220 211 201 195 199 191 190 198 180 168 164 191 156 145 134 332 347 2 340 68 169 151 126
198 193 187 187 184 191 197 200 196 189 181 163 129 102 77 56 56 30 312 303 246 212 202 204 210 215 197 212 210 193 185 200 205 172 156 166 221 296 13 45 75 78 76
198 193 190 191 195 199 196 194 188 183 177 166 163 165 171 184 206 199 223 341 350 292 193 219 222 219 213 226 229 200 196 189 213 213 208 190 164 173 222 34 63 73 66
196 194 195 197 195 189 185 185 174 175 171 167 167 162 166 175 157 119 64 358 356 357 315 225 218 221 218 213 207 184 186 195 198 194 184 185 157 167 180 198 95 71 55
195 193 190 182 181 175 173 171 168 178 174 167 163 164 167 168 158 160 174 302 348 347 349 19 85 121 196 213 206 183 178 187 184 189 181 171 162 179 176 190 176 117 72
183 184 181 183 181 178 178 174 173 182 176 165 168 175 176 175 183 187 186 188 271 331 322 347 66 73 110 101 118 134 160 172 171 193 203 194 187 166 155 154 157 140 99
179 187 190 187 186 184 181 175 175 178 172 168 172 168 165 168 177 178 167 174 191 244 316 72 73 69 76 86 92 94 103 103 136 183 187 183 194 173 165 162 155 152 118
184 189 189 186 184 184 184 178 174 175 176 174 164 158 157 155 158 158 151 149 146 117 79 78 66 63 68 72 78 77 71 81 83 82 159 178 197 176 173 165 170 166 166
183 187 188 186 184 185 181 173 173 177 176 167 165 162 156 154 149 136 131 125 110 94 86 75 70 65 64 68 75 71 64 74 62 71 84 90 110 122 143 164 163 160 154
186 188 188 182 177 173 169 169 169 164 163 164 159 152 149 146 135 131 131 121 106 103 96 84 74 73 70 70 76 68 65 73 59 56 72 66 75 99 114 126 129 133 133
182 184 180 170 169 171 172 172 170 169 170 164 156 154 147 140 135 134 128 117 107 97 98 95 83 73 70 70 76 75 69 71 64 60 70 63 73 77 85 104 113 125 133
176 174 168 169 173 174 175 175 173 172 165 155 151 147 146 144 143 138 125 116 111 101 89 86 86 80 74 72 72 78 74 71 66 67 75 69 80 79 81 95 106 111 118
177 177 175 175 176 177 176 176 173 167 160 154 153 154 161 160 150 135 123 114 110 104 96 89 85 83 79 77 77 78 76 72 64 63 70 70 80 90 96 103 110 114 113
180 184 184 181 175 174 175 175 170 164 159 157 160 166 164 155 139 129 122 117 109 107 102 94 83 78 80 82 90 87 84 78 71 62 60 69 83 88 97 116 122 123 122
192 189 185 182 180 178 178 175 171 166 160 160 164 161 153 148 140 134 127 116 107 102 96 92 91 80 77 89 96 102 94 86 82 74 58 63 64 80 88 98 108 123 134
194 190 190 189 185 181 177 176 170 160 161 162 162 161 159 155 150 144 133 126 120 110 100 95 94 86 85 96 98 98 99 89 79 75 69 72 65 74 90 90 88 88 100
198 196 189 185 182 173 170 165 158 161 162 159 159 160 159 153 147 143 141 134 125 119 113 107 102 97 98 104 102 98 88 81 69 63 70 82 71 79 100 99 89 79 75
201 200 188 177 167 164 160 154 160 163 161 164 164 163 161 156 153 151 149 143 134 126 122 122 116 111 105 109 111 105 96 88 70 60 62 74 78 83 104 105 101 90 74
174 173 165 154 158 159 150 153 164 166 173 172 170 164 161 160 162 161 154 143 140 138 131 118 112 117 122 129 123 115 112 102 86 62 54 59 74 88 107 115 116 110 97
159 157 155 160 162 157 154 160 169 181 177 163 161 159 158 161 163 158 152 144 137 131 125 118 101 100 116 141 141 131 125 128 114 90 61 53 69 85 99 113 123 136 126
127 141 147 155 156 157 160 167 179 175 160 158 163 165 163 163 167 161 155 150 146 143 143 137 116 86 103 138 160 152 139 139 130 131 121 91 88 90 98 108 123 123 116
137 142 143 143 151 160 164 175 176 160 158 163 168 166 165 165 163 163 161 158 157 159 168 171 176 188 161 160 166 160 152 144 135 146 149 130 111 97 95 106 121 123 122
145 144 142 147 159 167 172 175 165 160 161 167 169 168 166 166 167 168 168 169 173 176 181 187 194 194 189 194 178 163 154 144 129 121 109 102 97 86 91 98 106 113 131
118 140 150 156 160 163 167 163 163 161 164 168 169 171 173 169 172 169 174 179 187 188 186 194 193 190 206 218 194 177 178 174 165 136 106 95 94 93 95 104 105 111 125
134 142 148 152 160 166 167 167 165 165 162 165 169 176 176 173 171 167 157 132 169 179 186 186 183 202 204 181 176 179 179 171 154 136 141 154 163 173 175 169 165 168 175
Height
1538 1540 1542 1544 1546 1547 1548 1549 1550 1551 1552 1553 1554 1555 1555 1556 1556 1557 1557 1557 1557 1558 1558 1558 1559 1559 1559 1559 1560 1560 1560 1560 1560 1560 1560 1560 1560 1560 1560 1561 1561 1561 1562
1536 1538 1540 1542 1544 1545 1547 1548 1549 1550 1552 1553 1553 1554 1554 1555 1555 1556 1556 1556 1557 1557 1557 1557 1558 1558 1558 1558 1558 1558 1558 1558 1558 1559 1558 1559 1560 1558 1558 1558 1558 1559 1559
1533 1536 1538 1540 1542 1544 1546 1547 1548 1549 1551 1552 1552 1553 1553 1554 1554 1555 1555 1555 1556 1556 1556 1556 1557 1557 1557 1556 1556 1556 1556 1556 1557 1557 1558 1557 1556 1557 1557 1557 1556 1557 1557
1530 1533 1536 1538 1540 1542 1545 1546 1547 1548 1549 1550 1551 1551 1552 1553 1553 1554 1554 1555 1555 1555 1555 1555 1555 1555 1555 1555 1555 1554 1554 1555 1554 1555 1555 1555 1555 1555 1555 1556 1555 1555 1555
1526 1529 1533 1535 1538 1541 1543 1545 1546 1547 1548 1549 1549 1550 1551 1551 1552 1552 1553 1553 1554 1554 1554 1554 1553 1553 1553 1553 1553 1552 1552 1552 1552 1552 1552 1552 1552 1553 1553 1553 1554 1554 1554
1523 1526 1530 1534 1536 1539 1541 1543 1544 1545 1546 1547 1548 1549 1549 1550 1550 1551 1551 1552 1552 1552 1552 1552 1552 1552 1551 1551 1551 1550 1550 1550 1549 1549 1549 1549 1550 1550 1550 1551 1552 1552 1553
1520 1522 1527 1530 1533 1536 1538 1540 1542 1543 1544 1545 1546 1547 1548 1549 1549 1550 1550 1551 1551 1551 1551 1550 1550 1550 1549 1549 1549 1548 1548 1548 1547 1547 1547 1547 1547 1548 1548 1548 1549 1550 1552
1516 1519 1523 1527 1530 1533 1536 1538 1539 1541 1543 1544 1545 1546 1547 1547 1548 1548 1549 1549 1549 1549 1549 1549 1549 1548 1548 1547 1547 1547 1546 1546 1545 1545 1545 1545 1545 1545 1546 1546 1547 1548 1550
1513 1516 1520 1523 1527 1530 1533 1535 1537 1540 1541 1543 1544 1545 1546 1546 1547 1547 1547 1548 1548 1548 1548 1548 1547 1547 1546 1546 1546 1545 1545 1544 1544 1543 1543 1543 1543 1543 1543 1544 1545 1546 1547
1510 1514 1517 1521 1524 1528 1531 1534 1536 1538 1540 1542 1543 1545 1545 1546 1546 1547 1547 1547 1547 1547 1546 1546 1546 1545 1545 1545 1544 1544 1543 1542 1542 1542 1541 1541 1541 1541 1542 1542 1543 1544 1545
1507 1510 1514 1518 1522 1525 1529 1532 1535 1537 1539 1541 1543 1544 1545 1546 1546 1546 1546 1546 1546 1546 1546 1546 1545 1545 1545 1544 1543 1543 1542 1541 1541 1540 1540 1539 1539 1539 1540 1540 1541 1542 1544
1505 1509 1512 1516 1519 1523 1526 1530 1533 1536 1538 1540 1542 1543 1544 1545 1545 1546 1546 1546 1546 1545 1545 1545 1545 1544 1544 1543 1542 1542 1541 1541 1540 1540 1539 1539 1539 1539 1539 1539 1540 1541 1542
1504 1507 1510 1513 1517 1521 1524 1527 1531 1534 1536 1539 1541 1542 1543 1544 1544 1545 1545 1545 1545 1545 1545 1544 1544 1544 1543 1543 1542 1541 1541 1540 1540 1539 1539 1539 1539 1538 1538 1539 1540 1541 1542
1502 1505 1508 1511 1515 1519 1522 1526 1529 1532 1535 1537 1539 1541 1542 1543 1543 1544 1544 1545 1544 1544 1544 1544 1543 1543 1543 1543 1542 1542 1541 1541 1540 1540 1539 1539 1539 1539 1539 1539 1540 1540 1541
1500 1503 1506 1509 1513 1517 1520 1524 1527 1530 1532 1535 1538 1539 1541 1542 1542 1543 1543 1543 1543 1543 1543 1543 1543 1543 1543 1543 1542 1542 1541 1541 1540 1540 1540 1539 1539 1539 1539 1540 1540 1541 1541
1497 1500 1504 1507 1510 1514 1518 1521 1524 1528 1530 1533 1535 1537 1539 1540 1541 1542 1542 1542 1542 1542 1542 1542 1542 1542 1542 1543 1542 1542 1541 1541 1541 1540 1540 1540 1540 1540 1540 1540 1541 1541 1542
1494 1497 1500 1504 1507 1511 1515 1518 1522 1525 1528 1530 1533 1535 1537 1538 1539 1540 1541 1540 1541 1540 1541 1542 1542 1542 1542 1543 1542 1542 1541 1541 1541 1541 1540 1540 1540 1540 1540 1541 1541 1542 1543
1492 1494 1498 1501 1504 1508 1513 1517 1521 1524 1526 1528 1530 1533 1535 1536 1537 1538 1539 1539 1540 1540 1541 1542 1542 1542 1542 1543 1542 1542 1542 1541 1541 1541 1541 1541 1541 1541 1541 1542 1542 1542 1543
1490 1493 1495 1498 1502 1505 1510 1514 1518 1521 1524 1526 1528 1530 1533 1534 1535 1536 1537 1538 1539 1540 1540 1541 1542 1542 1542 1542 1542 1542 1542 1542 1542 1542 1542 1541 1541 1541 1542 1542 1543 1543 1544
1488 1491 1494 1497 1499 1502 1506 1511 1514 1517 1520 1523 1526 1528 1530 1532 1534 1535 1536 1538 1539 1539 1540 1541 1541 1542 1542 1542 1542 1543 1542 1542 1542 1542 1542 1542 1542 1542 1543 1543 1543 1544 1544
1486 1488 1491 1494 1497 1500 1503 1506 1510 1514 1518 1521 1524 1526 1528 1530 1531 1533 1535 1536 1538 1539 1540 1540 1541 1541 1542 1542 1542 1542 1543 1543 1542 1543 1543 1542 1543 1543 1543 1544 1544 1544 1545
1484 1486 1488 1492 1495 1498 1502 1505 1507 1511 1515 1519 1521 1523 1525 1526 1528 1530 1533 1534 1536 1537 1539 1539 1540 1541 1541 1542 1542 1542 1542 1543 1543 1543 1543 1543 1543 1544 1544 1544 1544 1545 1545
1482 1484 1487 1489 1492 1495 1499 1502 1505 1509 1512 1515 1518 1519 1521 1523 1526 1528 1530 1532 1534 1535 1536 1538 1538 1539 1540 1541 1541 1541 1542 1543 1543 1543 1544 1544 1544 1544 1544 1544 1545 1545 1546
1482 1483 1485 1487 1490 1493 1496 1500 1502 1505 1508 1511 1513 1515 1517 1520 1523 1525 1528 1530 1531 1533 1534 1535 1536 1537 1538 1539 1540 1540 1541 1541 1542 1543 1543 1543 1544 1544 1544 1544 1545 1545 1545
1481 1483 1483 1485 1487 1491 1494 1497 1499 1502 1505 1507 1510 1512 1515 1517 1519 1522 1525 1527 1529 1531 1532 1533 1535 1535 1536 1538 1538 1539 1539 1540 1541 1541 1542 1542 1543 1543 1543 1543 1544 1544 1545
1481 1482 1483 1484 1486 1489 1492 1494 1497 1499 1501 1503 1506 1509 1512 1515 1517 1520 1523 1525 1527 1528 1529 1531 1532 1533 1535 1535 1536 1537 1538 1538 1539 1540 1540 1541 1541 1542 1542 1542 1543 1543 1544